Location: Washington
(38.8950°N, 77.0370°W)
Time: 19:48:31
(UTC-04:00)

IDEFIX/ARIANE 42P - Visible Passes

Search period start: 02 September 2014 00:00
Search period end: 12 September 2014 00:00
Orbit: 786 x 804 km, 98.3° (Epoch: 02 September)

Date Brightness Start Highest point End Pass type
(mag) Time Alt. Az. Time Alt. Az. Time Alt. Az.
02 Sep 2.7 20:25:53 10° SSE 20:30:55 57° ENE 20:36:00 10° N visible
02 Sep 5.1 22:07:48 10° SW 22:10:52 16° W 22:13:59 10° NW visible
03 Sep 3.4 19:58:28 10° SE 20:02:58 31° ENE 20:07:30 10° N visible
03 Sep 4.3 21:38:03 10° SSW 21:42:31 29° W 21:47:01 10° NW visible
04 Sep 3.2 21:09:13 10° S 21:14:16 55° W 21:19:22 10° NNW visible
05 Sep 2.5 20:40:59 10° SSE 20:46:08 80° ENE 20:51:21 10° N visible
05 Sep 5.4 22:25:12 10° WSW 22:26:20 11° W 22:27:28 10° WNW visible
06 Sep 3.0 20:13:16 10° SE 20:18:07 43° ENE 20:23:01 10° N visible
06 Sep 4.8 21:54:03 10° SW 21:57:54 21° W 22:01:46 10° NW visible
07 Sep 3.8 21:24:48 10° SSW 21:29:35 39° W 21:34:26 10° NNW visible
08 Sep 2.7 20:56:14 10° S 21:01:24 73° WSW 21:06:36 10° NNW visible
09 Sep 2.6 20:28:14 10° SSE 20:33:19 61° ENE 20:38:27 10° N visible
09 Sep 5.2 22:10:30 10° SW 22:13:19 15° W 22:16:09 10° WNW visible
10 Sep 3.3 20:00:45 10° SE 20:05:21 34° ENE 20:09:59 10° N visible
10 Sep 4.4 21:40:35 10° SSW 21:44:57 27° W 21:49:21 10° NW visible
11 Sep 3.3 21:11:40 10° S 21:16:41 51° W 21:21:45 10° NNW visible
